This demonstration page uses our WeatherBlox Daily Observations layout. Learn more.

Left ArrowRight Arrow

Hourly Observations for June 9, 2021

Temp ( °F °C ) Dew Point ( °F °C ) Humidity (%) Winds ( mph kmh ) Pressure ( in mb ) Visibility ( mi km ) Precip ( " mm )
12:56 am 00:56 Clear 68 20 63 17.2 84 84 SE 7 11 29.91 1013 10 16 0.00 0.00
1:56 am 01:56 Clear 68 20 63 17.2 84 84 SE 7 11 29.92 1013 10 16 0.00 0.00
2:56 am 02:56 Clear 67 19.4 63 17.2 87 87 SE 8 13 29.93 1013 10 16 0.00 0.00
3:56 am 03:56 Clear 66 18.9 63 17.2 90 90 ESE 3 6 29.93 1014 10 16 0.00 0.00
4:56 am 04:56 Clear 66 18.9 62 16.7 87 87 ESE 3 6 29.95 1014 10 16 0.00 0.00
5:56 am 05:56 Cloudy 67 19.4 63 17.2 87 87 Calm 29.97 1015 10 16 0.00 0.00
6:56 am 06:56 Sunny 68 20 64 17.8 87 87 S 6 9 29.96 1015 10 16 0.00 0.00
7:56 am 07:56 Sunny 71 21.7 66 18.9 84 84 SE 7 11 29.97 1015 10 16 0.00 0.00
8:56 am 08:56 Sunny 76 24.4 68 20 77 77 ESE 7 11 29.99 1016 10 16 0.00 0.00
9:56 am 09:56 Sunny 80 26.7 68 20 67 67 SSE 12 19 29.98 1015 10 16 0.00 0.00
10:56 am 10:56 Sunny 83 28.3 65 18.3 55 55 ESE 17 28 29.98 1015 10 16 0.00 0.00
11:56 am 11:56 Mostly Sunny 84 28.9 66 18.9 55 55 SE 14 22 29.98 1015 10 16 0.00 0.00
12:56 pm 12:56 Mostly Sunny 86 30 65 18.3 49 49 SE 9 15 29.98 1015 10 16 0.00 0.00
1:56 pm 13:56 Sunny 87 30.6 64 17.8 46 46 SE 9 15 29.97 1015 10 16 0.00 0.00
2:56 pm 14:56 Sunny 89 31.7 65 18.3 45 45 S 9 15 29.96 1015 10 16 0.00 0.00
3:56 pm 15:56 Sunny 90 32.2 66 18.9 45 45 S 12 19 29.95 1014 10 16 0.00 0.00
4:56 pm 16:56 Mostly Sunny 90 32.2 67 19.4 47 47 SSE 14 22 29.93 1014 10 16 0.00 0.00
5:56 pm 17:56 Sunny 89 31.7 65 18.3 45 45 S 12 19 29.92 1013 10 16 0.00 0.00
6:56 pm 18:56 Mostly Sunny 89 31.7 66 18.9 47 47 SSW 8 13 29.91 1013 10 16 0.00 0.00
7:56 pm 19:56 Sunny 87 30.6 67 19.4 51 51 SSE 8 13 29.92 1013 10 16 0.00 0.00
8:56 pm 20:56 Sunny 82 27.8 67 19.4 60 60 SE 6 9 29.92 1013 10 16 0.00 0.00
9:56 pm 21:56 Clear 78 25.6 67 19.4 69 69 SE 8 13 29.93 1014 10 16 0.00 0.00
10:56 pm 22:56 Mostly Clear 78 25.6 67 19.4 69 69 SSE 9 15 29.95 1014 7 11 0.00 0.00
11:56 pm 23:56 Mostly Cloudy 77 25 67 19.4 71 71 SSE 9 15 29.95 1014 10 16 0.00 0.00

Powered by AerisWeather